Tracking 18710 objects as of 29-June-2017
HD Live streaming from Space Station
objects crossing your sky now

GREB

Track GREB now!
10-day predictions
GREB is classified as:


NORAD ID: 731
Int'l Code: 1964-001E
Perigee: 903.5 km
Apogee: 927.5 km
Inclination: 69.9 °
Period: 103.2 minutes
Semi major axis: 7286 km
RCS: 0.526 m2 (medium)
Launch date: January 11, 1964
Source: United States (US)
Launch site: AIR FORCE WESTERN TEST RANGE (AFWTR)
Your satellite tracking list
Your tracking list is empty





NASA's NSSDC Master Catalog

Two Line Element Set (TLE):
1   731U 64001E   17179.30917816 -.00000008 +00000-0 +33108-4 0  9990
2   731 069.9068 101.3048 0016498 275.4319 227.1759 13.95796332720883
Source of the keplerian elements: AFSPC